Regional Weather Roundup
Issued by NWS State College, PA

Home | Current Version | Previous Version | Text Only | Print | Product List | Glossary On
Versions: 1 2 3 4 5 6 7 8 9 10 11 12 13 14 15 16 17 18 19 20 21 22 23 24 25 26 27 28 29 30 31 32 33 34 35 36 37 38 39 40 41 42 43 44 45 46 47 48 49 50
167
ASUS41 KCTP 191703
RWRCTP

REGIONAL WEATHER ROUNDUP
NATIONAL WEATHER SERVICE STATE COLLEGE PA
1200 PM EST SUN FEB 19 2017

Note: "fair" indicates few or no clouds below 12,000 feet with no
significant weather and/or obstructions to visibility.

* = STATION THAT DOES NOT REPORT PRECIPITATION /E.G. RAIN...SNOW...ETC/
    THUNDER OR FOG.

PAZ002>004-007>009-013>016-020>023-029>032-191800-
WESTERN PENNSYLVANIA

CITY           SKY/WX    TMP DP  RH WIND       PRES   REMARKS
ERIE           SUNNY     47  37  68 W10       29.98R
MEADVILLE      SUNNY     52  39  61 W13       29.97R
FRANKLIN*      SUNNY     55  39  54 W7        29.97S
NEW CASTLE     FAIR      56  42  59 SW10      29.98S
BEAVER COUNTY  NOT AVBL
BUTLER*        SUNNY     55  43  62 W10       29.99S
PITTSBURGH INT MOSUNNY   56  44  64 SW8       29.98S
PITTSBURGH     MOSUNNY   56  42  59 SW15      29.98S
INDIANA*       MOSUNNY   54  45  71 W10G16    29.99S
LATROBE        PTSUNNY   54  45  71 W9G18     30.00S
WASHINGTON CO* PTSUNNY   55  45  67 SW9       30.02S
$$

PAZ004>006-010>012-017>019-024>028-033>037-041-042-045-046-049>053-191800-
CENTRAL PENNSYLVANIA

CITY           SKY/WX    TMP DP  RH WIND       PRES   REMARKS
BRADFORD       SUNNY     53  36  52 W13G18    29.92R
DUBOIS         SUNNY     54  40  59 W12       29.93S
CLEARFIELD       N/A    N/A N/A N/A MISG      29.92F
JOHNSTOWN      SUNNY     51  42  71 W15       29.95R
ALTOONA        SUNNY     56  43  61 W10       29.94F
STATE COLLEGE  NOT AVBL
WILLIAMSPORT   MOSUNNY   58  41  53 W13       29.88F
SELINSGROVE    PTSUNNY   58  43  57 SW6       29.89F
FT INDIANTOWN  CLOUDY    62  42  47 W12G22    29.87F
CAPITAL CITY   MOSUNNY   65  39  38 NW16      29.89F
HARRISBURG     PTSUNNY   64  42  44 NW15      29.88F
YORK           SUNNY     66  43  43 NW10G20   29.89S
$$

PAZ038>040-043-044-047-048-054-055-060>062-067>071-191800-
EASTERN PENNSYLVANIA

CITY           SKY/WX    TMP DP  RH WIND       PRES   REMARKS
SCRANTON       PTSUNNY   57  40  52 W10       29.84F
MOUNT POCONO   CLOUDY    48  36  63 NW12G22   29.83S
ALLENTOWN      MOSUNNY   63  38  39 W12       29.84F
QUAKERTOWN*    MOSUNNY   61  39  44 W6        29.86F
READING        MOSUNNY   63  43  48 NW12      29.86S
LANCASTER      SUNNY     64  43  46 NW16      29.87F
COATESVILLE    SUNNY     64  43  45 NW13G21   29.88F
POTTSTOWN      SUNNY     64  40  41 W8G21     29.87S
BLUE BELL        N/A     63  41  45 W5        29.85S
DOYLESTOWN     CLOUDY    64  40  41 NW12      29.84S
WILLOW GROVE   NOT AVBL
NORTH PHILA    SUNNY     69  41  36 N12       29.86S
PHILADELPHIA   MOSUNNY   66  39  37 NW8G18    29.86F
$$




USA.gov is the U.S. government's official web portal to all federal, state and local government web resources and services.